EN

Hourly Weather Al Hufuf

Today, 17 January, Sunday

Time Temperature Precipitation Wind Pressure Humidity
00:00 +13°C° 0 mm 0 mps 747 mmHg 86%
01:00 +15°C° 0 mm 1 mps 746 mmHg 83%
02:00 +15°C° 0 mm 2 mps 746 mmHg 80%
03:00 +16°C° 0 mm 2 mps 746 mmHg 78%
04:00 +16°C° 0 mm 3 mps 746 mmHg 73%
05:00 +16°C° 0 mm 3 mps 746 mmHg 69%
06:00 +16°C° 0 mm 3 mps 747 mmHg 65%
07:00 +18°C° 0 mm 3 mps 747 mmHg 55%
08:00 +20°C° 0 mm 3 mps 747 mmHg 44%
09:00 +22°C° 0 mm 4 mps 747 mmHg 34%
10:00 +25°C° 0 mm 5 mps 747 mmHg 28%
11:00 +28°C° 0 mm 6 mps 747 mmHg 21%
12:00 +31°C° 0 mm 8 mps 746 mmHg 14%
13:00 +32°C° 0 mm 7 mps 746 mmHg 14%
14:00 +33°C° 0 mm 7 mps 745 mmHg 14%
15:00 +33°C° 0 mm 7 mps 745 mmHg 14%
16:00 +30°C° 0 mm 6 mps 745 mmHg 16%
17:00 +27°C° 0 mm 5 mps 745 mmHg 19%
18:00 +25°C° 0 mm 3 mps 745 mmHg 22%
19:00 +22°C° 0 mm 3 mps 746 mmHg 27%
20:00 +21°C° 0 mm 3 mps 746 mmHg 32%
21:00 +19°C° 0 mm 3 mps 746 mmHg 36%
22:00 +18°C° 0 mm 3 mps 747 mmHg 39%
23:00 +18°C° 0 mm 3 mps 747 mmHg 41%

Tomorrow, 18 January, Monday

Time Temperature Precipitation Wind Pressure Humidity
00:00 +17°C° 0 mm 3 mps 747 mmHg 43%
01:00 +17°C° 0 mm 3 mps 747 mmHg 44%
02:00 +16°C° 0 mm 3 mps 747 mmHg 45%
03:00 +16°C° 0 mm 3 mps 747 mmHg 46%
04:00 +16°C° 0 mm 3 mps 748 mmHg 49%
05:00 +15°C° 0 mm 2 mps 748 mmHg 51%
06:00 +15°C° 0 mm 2 mps 748 mmHg 53%
07:00 +17°C° 0 mm 2 mps 749 mmHg 47%
08:00 +19°C° 0 mm 3 mps 749 mmHg 42%
09:00 +21°C° 0 mm 3 mps 750 mmHg 37%
10:00 +22°C° 0 mm 3 mps 750 mmHg 31%
11:00 +25°C° 0 mm 4 mps 750 mmHg 26%
12:00 +27°C° 0 mm 4 mps 749 mmHg 21%
13:00 +27°C° 0 mm 4 mps 749 mmHg 21%
14:00 +27°C° 0 mm 4 mps 749 mmHg 20%
15:00 +27°C° 0 mm 4 mps 749 mmHg 20%
16:00 +25°C° 0 mm 4 mps 749 mmHg 27%
17:00 +22°C° 0 mm 4 mps 749 mmHg 34%
18:00 +19°C° 0 mm 4 mps 750 mmHg 42%
19:00 +18°C° 0 mm 4 mps 750 mmHg 47%
20:00 +17°C° 0 mm 4 mps 750 mmHg 52%
21:00 +16°C° 0 mm 3 mps 751 mmHg 57%
22:00 +16°C° 0 mm 3 mps 751 mmHg 55%
23:00 +14°C° 0 mm 3 mps 751 mmHg 53%

Day after tomorrow, 19 January, Tuesday

Time Temperature Precipitation Wind Pressure Humidity
00:00 +14°C° 0 mm 3 mps 751 mmHg 51%
01:00 +13°C° 0 mm 3 mps 750 mmHg 52%
02:00 +13°C° 0 mm 3 mps 750 mmHg 54%
03:00 +13°C° 0 mm 3 mps 750 mmHg 55%
04:00 +12°C° 0 mm 3 mps 750 mmHg 55%
05:00 +12°C° 0 mm 3 mps 750 mmHg 56%
06:00 +12°C° 0 mm 3 mps 751 mmHg 56%
07:00 +14°C° 0 mm 3 mps 751 mmHg 51%
08:00 +17°C° 0 mm 4 mps 751 mmHg 45%
09:00 +19°C° 0 mm 4 mps 752 mmHg 40%
10:00 +21°C° 0 mm 4 mps 751 mmHg 36%
11:00 +22°C° 0 mm 4 mps 751 mmHg 31%
12:00 +25°C° 0 mm 4 mps 751 mmHg 27%
13:00 +25°C° 0 mm 4 mps 750 mmHg 26%
14:00 +25°C° 0 mm 4 mps 750 mmHg 25%
15:00 +26°C° 0 mm 4 mps 749 mmHg 25%
16:00 +22°C° 0 mm 4 mps 749 mmHg 32%
17:00 +20°C° 0 mm 4 mps 749 mmHg 39%
18:00 +18°C° 0 mm 4 mps 750 mmHg 47%
19:00 +17°C° 0 mm 3 mps 750 mmHg 53%
20:00 +16°C° 0 mm 3 mps 750 mmHg 59%
21:00 +15°C° 0 mm 2 mps 750 mmHg 66%
22:00 +14°C° 0 mm 2 mps 750 mmHg 69%
23:00 +14°C° 0 mm 2 mps 750 mmHg 73%

20 January, Wednesday

Time Temperature Precipitation Wind Pressure Humidity
00:00 +13°C° 0 mm 1 mps 750 mmHg 77%
01:00 +13°C° 0 mm 1 mps 749 mmHg 77%
02:00 +13°C° 0 mm 1 mps 749 mmHg 76%
03:00 +13°C° 0 mm 2 mps 749 mmHg 75%
04:00 +13°C° 0 mm 2 mps 749 mmHg 75%
05:00 +13°C° 0 mm 2 mps 749 mmHg 75%
06:00 +13°C° 0 mm 2 mps 749 mmHg 75%
07:00 +15°C° 0 mm 2 mps 750 mmHg 65%
08:00 +17°C° 0 mm 2 mps 750 mmHg 55%
09:00 +19°C° 0 mm 2 mps 750 mmHg 45%
10:00 +21°C° 0 mm 3 mps 750 mmHg 39%
11:00 +23°C° 0 mm 4 mps 749 mmHg 33%
12:00 +27°C° 0 mm 5 mps 749 mmHg 27%
13:00 +28°C° 0 mm 5 mps 748 mmHg 25%
14:00 +29°C° 0 mm 6 mps 747 mmHg 23%
15:00 +30°C° 0 mm 6 mps 747 mmHg 21%
16:00 +28°C° 0 mm 5 mps 747 mmHg 24%
17:00 +26°C° 0 mm 5 mps 747 mmHg 27%
18:00 +23°C° 0 mm 4 mps 747 mmHg 30%
19:00 +22°C° 0 mm 4 mps 748 mmHg 31%
20:00 +22°C° 0 mm 4 mps 748 mmHg 33%
21:00 +21°C° 0 mm 4 mps 749 mmHg 34%
22:00 +20°C° 0 mm 5 mps 749 mmHg 35%
23:00 +19°C° 0 mm 6 mps 750 mmHg 36%

21 January, Thursday

Time Temperature Precipitation Wind Pressure Humidity
00:00 +16°C° 0 mm 7 mps 750 mmHg 37%
01:00 +16°C° 0 mm 7 mps 751 mmHg 37%
02:00 +15°C° 0 mm 7 mps 751 mmHg 38%
03:00 +14°C° 0 mm 7 mps 751 mmHg 39%
04:00 +14°C° 0 mm 7 mps 752 mmHg 41%
05:00 +12°C° 0 mm 7 mps 752 mmHg 43%
06:00 +13°C° 0 mm 6 mps 753 mmHg 46%
07:00 +13°C° 0 mm 8 mps 753 mmHg 42%
08:00 +13°C° 0 mm 9 mps 754 mmHg 38%
09:00 +14°C° 0 mm 10 mps 754 mmHg 34%
10:00 +16°C° 0 mm 10 mps 754 mmHg 30%
11:00 +17°C° 0 mm 10 mps 754 mmHg 27%
12:00 +18°C° 0 mm 9 mps 754 mmHg 23%
13:00 +18°C° 0 mm 9 mps 754 mmHg 23%
14:00 +18°C° 0 mm 9 mps 753 mmHg 22%
15:00 +18°C° 0 mm 9 mps 753 mmHg 22%
16:00 +16°C° 0 mm 8 mps 753 mmHg 26%
17:00 +15°C° 0 mm 6 mps 754 mmHg 30%
18:00 +13°C° 0 mm 5 mps 754 mmHg 34%
19:00 +12°C° 0 mm 5 mps 754 mmHg 39%
20:00 +10°C° 0 mm 5 mps 755 mmHg 45%
21:00 +9°C° 0 mm 5 mps 755 mmHg 50%
22:00 +9°C° 0 mm 5 mps 755 mmHg 51%
23:00 +9°C° 0 mm 5 mps 755 mmHg 53%

22 January, Friday

Time Temperature Precipitation Wind Pressure Humidity
00:00 +8°C° 0 mm 5 mps 755 mmHg 55%
01:00 +8°C° 0 mm 6 mps 754 mmHg 48%
02:00 +6°C° 0 mm 7 mps 754 mmHg 40%
03:00 +6°C° 0 mm 7 mps 754 mmHg 33%
04:00 +6°C° 0 mm 7 mps 754 mmHg 32%
05:00 +5°C° 0 mm 7 mps 754 mmHg 32%
06:00 +5°C° 0 mm 7 mps 754 mmHg 31%
07:00 +6°C° 0 mm 8 mps 754 mmHg 27%
08:00 +7°C° 0 mm 9 mps 755 mmHg 23%
09:00 +8°C° 0 mm 9 mps 755 mmHg 19%
10:00 +11°C° 0 mm 9 mps 755 mmHg 16%
11:00 +12°C° 0 mm 9 mps 754 mmHg 13%
12:00 +15°C° 0 mm 8 mps 754 mmHg 10%
13:00 +15°C° 0 mm 8 mps 753 mmHg 10%
14:00 +16°C° 0 mm 8 mps 753 mmHg 9%
15:00 +16°C° 0 mm 7 mps 753 mmHg 8%
16:00 +14°C° 0 mm 6 mps 753 mmHg 11%
17:00 +12°C° 0 mm 5 mps 753 mmHg 13%
18:00 +10°C° 0 mm 4 mps 753 mmHg 15%
19:00 +10°C° 0 mm 4 mps 753 mmHg 17%
20:00 +8°C° 0 mm 4 mps 753 mmHg 18%
21:00 +7°C° 0 mm 4 mps 753 mmHg 20%
22:00 +7°C° 0 mm 5 mps 753 mmHg 21%
23:00 +7°C° 0 mm 5 mps 753 mmHg 23%
Show more